TimeMST,TemperatureF,Dew PointF,Humidity,Sea Level PressureIn,VisibilityMPH,Wind Direction,Wind SpeedMPH,Gust SpeedMPH,PrecipitationIn,Events,Conditions,WindDirDegrees,DateUTC
12:57 AM,36.0,9.0,33,30.34,10.0,East,6.9,-,N/A,,Clear,100,2014-01-15 07:57:00
1:57 AM,35.1,9.0,34,30.35,10.0,East,6.9,-,N/A,,Clear,80,2014-01-15 08:57:00
2:57 AM,33.1,10.0,38,30.38,10.0,East,4.6,-,N/A,,Clear,80,2014-01-15 09:57:00
3:57 AM,28.0,10.0,47,30.40,10.0,Calm,Calm,-,N/A,,Clear,0,2014-01-15 10:57:00
4:57 AM,25.0,12.0,58,30.41,10.0,Calm,Calm,-,N/A,,Clear,0,2014-01-15 11:57:00
5:57 AM,21.9,12.0,66,30.44,10.0,Calm,Calm,-,N/A,,Clear,0,2014-01-15 12:57:00
6:57 AM,21.9,12.0,66,30.44,10.0,Calm,Calm,-,N/A,,Clear,0,2014-01-15 13:57:00
7:57 AM,19.9,12.0,71,30.46,10.0,Calm,Calm,-,N/A,,Clear,0,2014-01-15 14:57:00
8:57 AM,30.0,15.1,54,30.44,10.0,Calm,Calm,-,N/A,,Clear,0,2014-01-15 15:57:00
9:57 AM,39.9,12.9,33,30.41,10.0,Calm,Calm,-,N/A,,Clear,0,2014-01-15 16:57:00
10:57 AM,48.0,12.9,24,30.36,10.0,NE,8.1,-,N/A,,Clear,50,2014-01-15 17:57:00
11:57 AM,52.0,12.0,20,30.31,10.0,NE,6.9,-,N/A,,Clear,50,2014-01-15 18:57:00
12:57 PM,53.1,12.9,20,30.27,10.0,North,-9999.0,-,N/A,,Clear,0,2014-01-15 19:57:00
1:57 PM,55.9,12.9,18,30.22,10.0,Variable,3.5,-,N/A,,Clear,0,2014-01-15 20:57:00
2:57 PM,57.0,12.9,18,30.23,10.0,NE,4.6,-,N/A,,Clear,50,2014-01-15 21:57:00
3:57 PM,57.9,7.0,13,30.24,10.0,Variable,5.8,-,N/A,,Clear,0,2014-01-15 22:57:00
4:57 PM,52.0,14.0,22,30.28,10.0,Variable,3.5,-,N/A,,Clear,0,2014-01-15 23:57:00
5:57 PM,43.0,14.0,31,30.33,10.0,Calm,Calm,-,N/A,,Clear,0,2014-01-16 00:57:00
6:57 PM,33.1,15.1,48,30.39,10.0,Calm,Calm,-,N/A,,Clear,0,2014-01-16 01:57:00
7:57 PM,28.9,15.1,56,30.41,10.0,Calm,Calm,-,N/A,,Clear,0,2014-01-16 02:57:00
8:57 PM,27.0,14.0,58,30.37,10.0,Calm,Calm,-,N/A,,Clear,0,2014-01-16 03:57:00
9:57 PM,25.0,14.0,63,30.32,10.0,Calm,Calm,-,N/A,,Clear,0,2014-01-16 04:57:00
10:57 PM,24.1,15.1,69,30.28,10.0,ENE,3.5,-,N/A,,Clear,60,2014-01-16 05:57:00
11:57 PM,21.9,14.0,72,30.27,10.0,Calm,Calm,-,N/A,,Clear,0,2014-01-16 06:57:00